STARLINK-3904, 52464

Orbit data source: Space-Track

STARLINK-3904, 52464 is a payload satellite owned by SpaceX/Seattle (US) in LEO that was launched on Fri, 06 May 2022 UTC via an FALCON 9 launch vehicle from the Air Force Eastern Test Range (AFETR). Payload-class satellites include a variety of spacecraft equipped with specific instruments for various scientific and technological missions. These include communications satellites like Starlink; space stations such as the ISS; scientific satellites like the Hubble; Earth observation satellites from companies like Planet Labs, Umbra, and HawkEye 360; GPS; miniature CubeSats for education and research; and military/defense satellites.

Loading next visibility...
Identifier
52464, 2022-049P
Orbit
LEO
Country
Flag of USUS
Related business
Manufacturer
SpaceX/Seattle
Mission
Operational Commercial Communications
Bus & Motor
STARLINK, Unknown motor
Mass
297 kg wet, ~220 kg dry
Launch date (UTC)
2022-05-06 (4 years ago)
Launch vehicle
FALCON 9
Launch site
Air Force Eastern Test Range (AFETR)
Object type
Payload
Rocket body
Debris
Shape & HBR
Box + 1 Pan, 10.1 m
Radar Cross Section
13.562 m², Large (>1 m²)

Expand to show TLE details & history
Last TLE update: 22 hours ago

TLE from 22 hours ago
0 STARLINK-3904
1 52464U 22049P   25346.69916124 -.00000888  00000-0 -37707-4 0  9990
2 52464  53.2185  89.6347 0001265  92.0222 268.0915 15.08831082199113
Epoch: 2025-12-12T16:46Z
TLE epoch observation values (Epoch: 2025-12-12T16:46:47.531Z)
Latitude
-0.00001°
Longitude
116.29961°
Altitude
540.697 km
Speed
7.593 km/s
True Right ascension
05h 58m 32s
True Declination
0° 00' 00"
Sunlit
Object was in full shadow at epoch
Visualization orbit readout
Latitude
Unknown
Longitude
Unknown
Altitude
Unknown
Speed
Unknown
Apparent Right ascension
Unknown
Apparent Declination
Unknown
Sunlit
N/A
Visualization observer readout
Local Sidereal Time
12:53:36
Azimuth
Unknown
Elevation
Unknown
Doppler factor
Unknown
Orbital elements
Apogee altitude
540.891 km
Perigee altitude
539.14 km
Semi-major axis
6,918.152 km
Eccentricity
0.00013
Inclination
53.2185°
RAAN
89.6347°
Arg. of periapsis
92.0222°
True anomaly
268.07701°
Mean anomaly
268.0915°
Eccentric anomaly
268.08426°
Mean motion
3.77188 °/min
Orbital period
95.44 mins
BSTAR
-0.000037707
Loading maneuver chart data...
Computing Atmospheric mass density...
Loading historical data...
Loading historical data...
Loading historical data...
Loading historical data...
Loading historical data...
Loading historical data...
Loading historical data...

Documentation

Showing up to 5 results
|